Fort Myers, FL

3:24 AM EST on February 25, 2017 (GMT -0500)
Page

Weather History for KFMY - September, 2013

Change the Weather History Date:

Monday, September 16, 2013

  Actual Average Record
Temperature  
Mean Temperature 80 °F 82 °F  
Max Temperature 87 °F 91 °F 95 °F (1942)
Min Temperature 73 °F 75 °F 67 °F (1918)
Degree Days  
Heating Degree Days 0 0  
Month to date heating degree days 0 0  
Since 1 July heating degree days 0 0  
Cooling Degree Days 15 18  
Month to date cooling degree days 274 288  
Year to date cooling degree days 2992 3012  
Growing Degree Days 30 (Base 50)    
Moisture  
Dew Point 74 °F    
Average Humidity 87    
Maximum Humidity 100    
Minimum Humidity 68    
Precipitation  
Precipitation 0.17 in 0.29 in 1.94 in (1939)
Month to date precipitation 3.87 5.00  
Year to date precipitation 43.47 46.07  
Sea Level Pressure  
Sea Level Pressure 30.02 in    
Wind  
Wind Speed 8 mph (ENE)    
Max Wind Speed 22 mph    
Max Gust Speed 29 mph    
Visibility 9 miles    
Events Rain , Thunderstorm    
T = Trace of Precipitation, MM = Missing Value Source: NWS Daily Summary

Daily Weather History Graph

Daily Weather History Graph

Search for Another Location

Airport or City:

Trip Planner

Search our weather history database for the weather conditions in past years. The results will help you decide how hot, cold, wet, or windy it might be!

Date:

Astronomy

Sep. 16, 2013 Rise Set
Actual Time 7:13 AM EDT 7:30 PM EDT
Civil Twilight 6:50 AM EDT 7:53 PM EDT
Nautical Twilight 6:23 AM EDT 8:20 PM EDT
Astronomical Twilight 5:55 AM EDT 8:47 PM EDT
Moon 5:27 PM EDT (9/16) 4:12 AM EDT (9/16)
Length of Visible Light 13h 03m
Length of Day
12h 16m
Waxing Gibbous, 90% of the Moon is Illuminated
Sep 16
Waxing Gibbous
Sep 19
Full
Sep 26
Last Quarter
Oct 4
New
Oct 11
First Quarter

Hourly Weather History & Observations

Time (EDT) Temp. Heat Index Dew Point Humidity Pressure Visibility Wind Dir Wind Speed Gust Speed Precip Events Conditions
12:53 AM 77.0 °F - 75.0 °F 94% 30.03 in 10.0 mi East 4.6 mph - N/A   Clear
1:53 AM 75.9 °F - 73.0 °F 91% 30.04 in 10.0 mi ENE 9.2 mph - N/A   Clear
2:53 AM 75.0 °F - 72.0 °F 90% 30.02 in 10.0 mi East 4.6 mph - N/A   Clear
3:53 AM 75.0 °F - 72.0 °F 90% 30.01 in 10.0 mi ENE 6.9 mph - N/A   Clear
4:53 AM 75.0 °F - 73.9 °F 96% 30.00 in 10.0 mi ENE 5.8 mph - N/A   Clear
5:53 AM 75.0 °F - 73.9 °F 96% 30.00 in 10.0 mi ENE 4.6 mph - N/A   Clear
6:53 AM 75.0 °F - 73.0 °F 94% 30.01 in 10.0 mi ENE 8.1 mph - N/A   Clear
7:53 AM 75.9 °F - 73.9 °F 94% 30.03 in 10.0 mi ENE 8.1 mph - N/A   Clear
8:53 AM 80.1 °F 85.1 °F 75.0 °F 85% 30.03 in 10.0 mi East 8.1 mph - N/A   Clear
9:53 AM 82.0 °F 89.4 °F 75.9 °F 82% 30.04 in 10.0 mi East 9.2 mph - N/A   Mostly Cloudy
10:00 AM 82.4 °F 90.9 °F 77.0 °F 84% 30.04 in 10.0 mi East 5.8 mph - N/A   Mostly Cloudy
10:19 AM 84.2 °F 92.3 °F 75.2 °F 74% 30.04 in 10.0 mi East 9.2 mph - N/A   Scattered Clouds
10:29 AM 84.2 °F 92.3 °F 75.2 °F 74% 30.03 in 10.0 mi ENE 12.7 mph - N/A   Mostly Cloudy
10:53 AM 84.9 °F 94.1 °F 75.9 °F 74% 30.05 in 10.0 mi East 11.5 mph - N/A   Mostly Cloudy
11:21 AM 86.0 °F 95.1 °F 75.2 °F 70% 30.03 in 10.0 mi ESE 10.4 mph - N/A   Mostly Cloudy
11:53 AM 87.1 °F 96.3 °F 75.0 °F 67% 30.04 in 10.0 mi East 13.8 mph - N/A   Mostly Cloudy
12:11 PM 82.4 °F 87.2 °F 71.6 °F 70% 30.03 in 10.0 mi ENE 12.7 mph 25.3 mph N/A   Mostly Cloudy
12:53 PM 82.9 °F 88.0 °F 72.0 °F 69% 30.02 in 10.0 mi NE 10.4 mph - 0.00 in   Scattered Clouds
1:06 PM 78.8 °F - 75.2 °F 89% 30.02 in 2.5 mi East 6.9 mph - 0.01 in Rain , Thunderstorm Rain
1:18 PM 80.6 °F 86.2 °F 75.2 °F 84% 30.02 in 8.0 mi ENE 16.1 mph - 0.02 in Rain , Thunderstorm Light Rain
1:31 PM 80.6 °F 85.4 °F 73.4 °F 79% 30.03 in 10.0 mi East 16.1 mph 24.2 mph 0.02 in   Mostly Cloudy
1:42 PM 80.6 °F 85.4 °F 73.4 °F 79% 30.02 in 10.0 mi East 16.1 mph 25.3 mph 0.02 in Thunderstorm Scattered Clouds
1:53 PM 77.0 °F - 73.0 °F 88% 30.03 in 6.0 mi East 16.1 mph 26.5 mph 0.02 in Rain Light Rain
2:53 PM 75.0 °F - 72.0 °F 90% 30.05 in 6.0 mi East 11.5 mph 17.3 mph 0.00 in Rain Light Rain
3:06 PM 73.4 °F - 71.6 °F 94% 30.03 in 1.8 mi East 9.2 mph 18.4 mph 0.03 in Rain Heavy Rain
3:17 PM 73.4 °F - 71.6 °F 94% 30.01 in 3.0 mi ESE 10.4 mph - 0.07 in Rain Light Rain
3:53 PM 73.9 °F - 73.0 °F 97% 30.00 in 5.0 mi East 6.9 mph - 0.12 in Rain Light Rain
4:53 PM 75.0 °F - 72.0 °F 90% 29.98 in 8.0 mi ENE 5.8 mph - 0.02 in Rain Light Rain
5:53 PM 75.0 °F - 73.0 °F 94% 29.97 in 10.0 mi NE 8.1 mph - 0.01 in   Mostly Cloudy
6:53 PM 75.0 °F - 73.0 °F 94% 29.98 in 10.0 mi ENE 6.9 mph - N/A   Clear
7:53 PM 75.0 °F - 73.0 °F 94% 30.00 in 10.0 mi ENE 6.9 mph - N/A   Clear
8:53 PM 75.0 °F - 73.9 °F 96% 30.01 in 10.0 mi ENE 5.8 mph - N/A   Partly Cloudy
8:59 PM 75.2 °F - 73.4 °F 94% 30.00 in 10.0 mi East 4.6 mph - N/A   Mostly Cloudy
9:53 PM 75.0 °F - 73.9 °F 96% 30.01 in 10.0 mi ENE 6.9 mph - N/A   Mostly Cloudy
10:42 PM 75.2 °F - 73.4 °F 94% 30.01 in 10.0 mi East 3.5 mph - N/A   Scattered Clouds
10:53 PM 75.0 °F - 73.9 °F 96% 30.01 in 10.0 mi ENE 4.6 mph - N/A   Partly Cloudy
11:53 PM 75.0 °F - 73.9 °F 96% 30.02 in 10.0 mi East 4.6 mph - N/A   Clear